"read_dt","SO2 (ppb)","flags","PMT voltage (V)","lamp voltage (V)","lamp intensity (Hz)","internal temp (C)","react chamber temp (C)","sample flow (l/min)","pres (mmHg)","SO2 bkg (ppb)","SO2 coefficient"
2016-02-17 00:00:00,1780E-3,5C000400,-0724,0836,11970,027.9,045.4,0.256,753.8,01.17,0.508
2016-02-17 00:01:00,1799E-3,5C000400,-0724,0837,11971,027.9,045.4,0.256,753.8,01.17,0.508
2016-02-17 00:02:00,1806E-3,5C000400,-0724,0836,12186,027.9,045.4,0.256,753.8,01.17,0.508
2016-02-17 00:03:00,1805E-3,5C000400,-0724,0836,12087,027.9,045.4,0.256,753.8,01.17,0.508
2016-02-17 00:04:00,1848E-3,5C000400,-0724,0837,12058,027.9,045.4,0.256,753.8,01.17,0.508
2016-02-17 00:05:00,1675E-3,5C000400,-0724,0836,12089,027.9,045.4,0.256,753.8,01.17,0.508
2016-02-17 00:06:00,1773E-3,5C000400,-0724,0836,12161,027.9,045.4,0.256,753.7,01.17,0.508
2016-02-17 00:07:00,1755E-3,5C000400,-0724,0836,12006,027.9,045.4,0.256,753.8,01.17,0.508
2016-02-17 00:08:00,1819E-3,5C000400,-0724,0837,12141,027.9,045.4,0.256,753.8,01.17,0.508
2016-02-17 00:09:00,1837E-3,5C000400,-0724,0837,12209,027.9,045.4,0.256,753.8,01.17,0.508
2016-02-17 00:10:00,1731E-3,5C000400,-0724,0836,12145,027.9,045.4,0.256,753.8,01.17,0.508
2016-02-17 00:11:00,1830E-3,5C000400,-0724,0836,12038,027.9,045.4,0.256,753.8,01.17,0.508
2016-02-17 00:12:00,1790E-3,5C000400,-0724,0836,12231,027.9,045.4,0.256,753.8,01.17,0.508
2016-02-17 00:13:00,1894E-3,5C000400,-0724,0836,12091,027.9,045.4,0.256,753.8,01.17,0.508
2016-02-17 00:14:00,1872E-3,5C000400,-0724,0837,12136,027.9,045.4,0.256,753.8,01.17,0.508
2016-02-17 00:15:00,1830E-3,5C000400,-0724,0837,12072,027.9,045.4,0.256,753.7,01.17,0.508
2016-02-17 00:16:00,1774E-3,5C000400,-0724,0837,12149,027.9,045.4,0.256,753.7,01.17,0.508
2016-02-17 00:17:00,1708E-3,5C000400,-0724,0836,12071,027.9,045.4,0.256,753.7,01.17,0.508
2016-02-17 00:18:00,1862E-3,5C000400,-0724,0836,12001,027.9,045.4,0.256,753.7,01.17,0.508
2016-02-17 00:19:00,1888E-3,5C000400,-0724,0836,12097,027.9,045.4,0.256,753.7,01.17,0.508
2016-02-17 00:20:00,1794E-3,5C000400,-0724,0837,12200,027.9,045.4,0.256,753.7,01.17,0.508
2016-02-17 00:21:00,1937E-3,5C000400,-0724,0836,12178,027.9,045.4,0.256,753.7,01.17,0.508
2016-02-17 00:22:00,1811E-3,5C000400,-0724,0835,12053,027.9,045.4,0.256,753.7,01.17,0.508
2016-02-17 00:23:00,1800E-3,5C000400,-0724,0837,12060,027.9,045.4,0.256,753.7,01.17,0.508
2016-02-17 00:24:00,1800E-3,5C000400,-0724,0837,12124,027.9,045.4,0.256,753.6,01.17,0.508
2016-02-17 00:25:00,1832E-3,5C000400,-0724,0837,12169,027.9,045.4,0.256,753.6,01.17,0.508
2016-02-17 00:26:00,1827E-3,5C000400,-0724,0836,12213,027.9,045.4,0.256,753.6,01.17,0.508
2016-02-17 00:27:00,1888E-3,5C000400,-0724,0836,11821,027.9,045.4,0.256,753.6,01.17,0.508
2016-02-17 00:28:00,1781E-3,5C000400,-0724,0837,12227,027.9,045.4,0.256,753.6,01.17,0.508
2016-02-17 00:29:00,1817E-3,5C000400,-0724,0837,12115,027.9,045.4,0.256,753.6,01.17,0.508
2016-02-17 00:30:00,1870E-3,5C000400,-0724,0836,12022,027.9,045.4,0.256,753.6,01.17,0.508
2016-02-17 00:31:00,1817E-3,5C000400,-0724,0837,12270,027.9,045.4,0.256,753.6,01.17,0.508
2016-02-17 00:32:00,1711E-3,5C000400,-0724,0836,12103,027.9,045.4,0.256,753.6,01.17,0.508
2016-02-17 00:33:00,1847E-3,5C000400,-0724,0836,12177,027.9,045.4,0.256,753.5,01.17,0.508
2016-02-17 00:34:00,1901E-3,5C000400,-0724,0836,12178,027.9,045.4,0.256,753.5,01.17,0.508
2016-02-17 00:35:00,1902E-3,5C000400,-0724,0837,12052,027.9,045.4,0.256,753.5,01.17,0.508
2016-02-17 00:36:00,1939E-3,5C000400,-0724,0836,12109,027.9,045.4,0.256,753.5,01.17,0.508
2016-02-17 00:37:00,1691E-3,5C000400,-0724,0836,12089,027.9,045.4,0.255,753.5,01.17,0.508
2016-02-17 00:38:00,1822E-3,5C000400,-0724,0837,12111,027.9,045.4,0.255,753.5,01.17,0.508
2016-02-17 00:39:00,1823E-3,5C000400,-0724,0836,12073,027.9,045.4,0.255,753.5,01.17,0.508
2016-02-17 00:40:00,1811E-3,5C000400,-0724,0836,12218,027.9,045.4,0.255,753.5,01.17,0.508
2016-02-17 00:41:00,1814E-3,5C000400,-0724,0837,12270,027.9,045.4,0.255,753.5,01.17,0.508
2016-02-17 00:42:00,1872E-3,5C000400,-0724,0837,12055,027.9,045.4,0.256,753.5,01.17,0.508
2016-02-17 00:43:00,1655E-3,5C000400,-0724,0836,12075,027.9,045.4,0.256,753.5,01.17,0.508
2016-02-17 00:44:00,1901E-3,5C000400,-0724,0836,12043,027.9,045.4,0.256,753.5,01.17,0.508
2016-02-17 00:45:00,1922E-3,5C000400,-0724,0837,12109,027.9,045.4,0.256,753.5,01.17,0.508
2016-02-17 00:46:00,1696E-3,5C000400,-0724,0836,12065,027.9,045.4,0.256,753.5,01.17,0.508
2016-02-17 00:47:00,1754E-3,5C000400,-0724,0836,12138,027.9,045.4,0.256,753.5,01.17,0.508
2016-02-17 00:48:00,1886E-3,5C000400,-0724,0836,12075,027.9,045.4,0.256,753.5,01.17,0.508
2016-02-17 00:49:00,1920E-3,5C000400,-0724,0837,12057,027.9,045.4,0.256,753.5,01.17,0.508
2016-02-17 00:50:00,1768E-3,5C000400,-0724,0836,12060,027.9,045.4,0.256,753.5,01.17,0.508
2016-02-17 00:51:00,1937E-3,5C000400,-0724,0837,12040,027.9,045.4,0.256,753.5,01.17,0.508
2016-02-17 00:52:00,1955E-3,5C000400,-0724,0837,12181,027.9,045.4,0.256,753.5,01.17,0.508
2016-02-17 00:53:00,1823E-3,5C000400,-0724,0837,12155,027.9,045.4,0.256,753.5,01.17,0.508
2016-02-17 00:54:00,1770E-3,5C000400,-0724,0836,12068,027.9,045.4,0.256,753.5,01.17,0.508
2016-02-17 00:55:00,1798E-3,5C000400,-0724,0837,12144,027.9,045.4,0.256,753.4,01.17,0.508
2016-02-17 00:56:00,1872E-3,5C000400,-0724,0836,12105,027.9,045.4,0.256,753.5,01.17,0.508
2016-02-17 00:57:00,1726E-3,5C000400,-0724,0836,12130,027.9,045.4,0.256,753.4,01.17,0.508
2016-02-17 00:58:00,1848E-3,5C000400,-0724,0837,12138,027.9,045.5,0.256,753.4,01.17,0.508
2016-02-17 00:59:00,1772E-3,5C000400,-0724,0837,11983,027.9,045.4,0.256,753.4,01.17,0.508
2016-02-17 01:00:00,1992E-3,5C000400,-0724,0836,12096,027.9,045.4,0.256,753.4,01.17,0.508
2016-02-17 01:01:00,1762E-3,5C000400,-0724,0837,12265,027.9,045.4,0.256,753.4,01.17,0.508
2016-02-17 01:02:00,1772E-3,5C000400,-0724,0836,12170,027.9,045.4,0.256,753.4,01.17,0.508
2016-02-17 01:03:00,1815E-3,5C000400,-0724,0837,12094,027.9,045.4,0.256,753.4,01.17,0.508
2016-02-17 01:04:00,1755E-3,5C000400,-0724,0837,12194,027.9,045.4,0.256,753.4,01.17,0.508
2016-02-17 01:05:00,1900E-3,5C000400,-0724,0837,12173,028.0,045.4,0.256,753.3,01.17,0.508
2016-02-17 01:06:00,1783E-3,5C000400,-0724,0836,12054,028.0,045.4,0.256,753.3,01.17,0.508
2016-02-17 01:07:00,1732E-3,5C000400,-0724,0836,12166,027.9,045.4,0.256,753.3,01.17,0.508
2016-02-17 01:08:00,1964E-3,5C000400,-0724,0836,12200,027.9,045.4,0.256,753.4,01.17,0.508
2016-02-17 01:09:00,1825E-3,5C000400,-0724,0837,12028,027.9,045.4,0.256,753.4,01.17,0.508
2016-02-17 01:10:00,1863E-3,5C000400,-0724,0836,12159,027.9,045.4,0.256,753.4,01.17,0.508
2016-02-17 01:11:00,1873E-3,5C000400,-0724,0837,12070,028.0,045.4,0.256,753.3,01.17,0.508
2016-02-17 01:12:00,1823E-3,5C000400,-0724,0836,12122,027.9,045.4,0.256,753.4,01.17,0.508
2016-02-17 01:13:00,1782E-3,5C000400,-0724,0837,12200,027.9,045.4,0.256,753.3,01.17,0.508
2016-02-17 01:14:00,1726E-3,5C000400,-0724,0836,12238,027.9,045.4,0.256,753.3,01.17,0.508
2016-02-17 01:15:00,1916E-3,5C000400,-0724,0837,12237,028.0,045.4,0.256,753.3,01.17,0.508
2016-02-17 01:16:00,1699E-3,5C000400,-0724,0837,12189,027.9,045.4,0.256,753.2,01.17,0.508
2016-02-17 01:17:00,1736E-3,5C000400,-0724,0837,12026,027.9,045.4,0.256,753.2,01.17,0.508
2016-02-17 01:18:00,1879E-3,5C000400,-0724,0836,12126,027.9,045.4,0.256,753.2,01.17,0.508
2016-02-17 01:19:00,1832E-3,5C000400,-0724,0837,12185,028.0,045.4,0.256,753.3,01.17,0.508
2016-02-17 01:20:00,1926E-3,5C000400,-0724,0836,12219,027.9,045.4,0.256,753.3,01.17,0.508
2016-02-17 01:21:00,1891E-3,5C000400,-0724,0836,12110,028.0,045.4,0.256,753.2,01.17,0.508
2016-02-17 01:22:00,1819E-3,5C000400,-0724,0837,12029,028.0,045.4,0.256,753.2,01.17,0.508
2016-02-17 01:23:00,1792E-3,5C000400,-0724,0836,12023,028.0,045.4,0.256,753.3,01.17,0.508
2016-02-17 01:24:00,1962E-3,5C000400,-0724,0836,12157,028.0,045.4,0.256,753.3,01.17,0.508
2016-02-17 01:25:00,1675E-3,5C000400,-0724,0837,12207,027.9,045.4,0.256,753.2,01.17,0.508
2016-02-17 01:26:00,1887E-3,5C000400,-0724,0836,12133,027.9,045.4,0.256,753.2,01.17,0.508
2016-02-17 01:27:00,1765E-3,5C000400,-0724,0836,12190,028.0,045.4,0.256,753.2,01.17,0.508
2016-02-17 01:28:00,1633E-3,5C000400,-0724,0837,12047,028.0,045.4,0.256,753.2,01.17,0.508
2016-02-17 01:29:00,1875E-3,5C000400,-0724,0836,12094,027.9,045.4,0.256,753.2,01.17,0.508
2016-02-17 01:30:00,1883E-3,5C000400,-0724,0836,12118,027.9,045.4,0.256,753.2,01.17,0.508
2016-02-17 01:31:00,1815E-3,5C000400,-0724,0836,12062,028.0,045.4,0.256,753.2,01.17,0.508
2016-02-17 01:32:00,1772E-3,5C000400,-0724,0836,12192,028.0,045.4,0.256,753.2,01.17,0.508
2016-02-17 01:33:00,1763E-3,5C000400,-0724,0837,12284,028.0,045.4,0.256,753.2,01.17,0.508
2016-02-17 01:34:00,1849E-3,5C000400,-0724,0837,12110,027.9,045.4,0.256,753.2,01.17,0.508
2016-02-17 01:35:00,1883E-3,5C000400,-0724,0836,12134,028.0,045.4,0.256,753.2,01.17,0.508
2016-02-17 01:36:00,1645E-3,5C000400,-0724,0836,12157,028.0,045.4,0.256,753.2,01.17,0.508
2016-02-17 01:37:00,1737E-3,5C000400,-0724,0837,12116,028.0,045.4,0.256,753.1,01.17,0.508
2016-02-17 01:38:00,1894E-3,5C000400,-0724,0837,12165,028.0,045.4,0.256,753.1,01.17,0.508
2016-02-17 01:39:00,1735E-3,5C000400,-0724,0837,12188,028.0,045.4,0.256,753.1,01.17,0.508
2016-02-17 01:40:00,1833E-3,5C000400,-0724,0837,12144,028.0,045.4,0.256,753.1,01.17,0.508
2016-02-17 01:41:00,1721E-3,5C000400,-0724,0836,11939,027.9,045.4,0.256,753.1,01.17,0.508
2016-02-17 01:42:00,1852E-3,5C000400,-0724,0836,12174,028.0,045.4,0.256,753.1,01.17,0.508
2016-02-17 01:43:00,1889E-3,5C000400,-0724,0836,12088,028.0,045.4,0.256,753.1,01.17,0.508
2016-02-17 01:44:00,1754E-3,5C000400,-0724,0837,12106,028.0,045.4,0.256,753.1,01.17,0.508
2016-02-17 01:45:00,1782E-3,5C000400,-0724,0836,12121,028.0,045.4,0.256,753.1,01.17,0.508
2016-02-17 01:46:00,1814E-3,5C000400,-0724,0836,12034,028.0,045.4,0.256,753.1,01.17,0.508
2016-02-17 01:47:00,1754E-3,5C000400,-0724,0836,12085,028.0,045.4,0.256,753.1,01.17,0.508
2016-02-17 01:48:00,1692E-3,5C000400,-0724,0836,12108,028.0,045.4,0.256,753.1,01.17,0.508
2016-02-17 01:49:00,1698E-3,5C000400,-0724,0838,12102,028.0,045.4,0.256,753.1,01.17,0.508
2016-02-17 01:50:00,1899E-3,5C000400,-0724,0837,12051,028.0,045.4,0.256,753.1,01.17,0.508
2016-02-17 01:51:00,1593E-3,5C000400,-0724,0836,12188,028.0,045.4,0.256,753.1,01.17,0.508
2016-02-17 01:52:00,1800E-3,5C000400,-0724,0836,12085,028.0,045.4,0.256,753.1,01.17,0.508
2016-02-17 01:53:00,1849E-3,5C000400,-0724,0836,12183,028.0,045.4,0.256,753.1,01.17,0.508
2016-02-17 01:54:00,1723E-3,5C000400,-0724,0836,12202,028.0,045.4,0.256,753.1,01.17,0.508
2016-02-17 01:55:00,1833E-3,5C000400,-0724,0836,12089,028.0,045.4,0.256,753.1,01.17,0.508
2016-02-17 01:56:00,1842E-3,5C000400,-0724,0836,12218,028.0,045.4,0.256,753.2,01.17,0.508
2016-02-17 01:57:00,1877E-3,5C000400,-0724,0837,12121,028.0,045.4,0.256,753.2,01.17,0.508
2016-02-17 01:58:00,1759E-3,5C000400,-0724,0836,12190,028.0,045.4,0.256,753.1,01.17,0.508
2016-02-17 01:59:00,1948E-3,5C000400,-0724,0837,11964,028.0,045.4,0.256,753.1,01.17,0.508
2016-02-17 02:00:00,1738E-3,5C000400,-0724,0837,12058,028.0,045.4,0.256,753.1,01.17,0.508
2016-02-17 02:01:00,1859E-3,5C000400,-0724,0836,12143,028.0,045.4,0.256,753.2,01.17,0.508
2016-02-17 02:02:00,1816E-3,5C000400,-0724,0836,12083,028.0,045.4,0.256,753.2,01.17,0.508
2016-02-17 02:03:00,1709E-3,5C000400,-0724,0836,12172,028.0,045.4,0.256,753.2,01.17,0.508
2016-02-17 02:04:00,1719E-3,5C000400,-0724,0837,12153,028.0,045.4,0.256,753.1,01.17,0.508
2016-02-17 02:05:00,1738E-3,5C000400,-0724,0836,12123,028.0,045.4,0.256,753.1,01.17,0.508
2016-02-17 02:06:00,1742E-3,5C000400,-0724,0836,12136,028.0,045.4,0.256,753.1,01.17,0.508
2016-02-17 02:07:00,1790E-3,5C000400,-0724,0836,12159,028.0,045.4,0.256,753.1,01.17,0.508
2016-02-17 02:08:00,1875E-3,5C000400,-0724,0835,12111,028.0,045.4,0.256,753.1,01.17,0.508
2016-02-17 02:09:00,1736E-3,5C000400,-0724,0836,12162,028.0,045.4,0.256,753.1,01.17,0.508
2016-02-17 02:10:00,1697E-3,5C000400,-0724,0836,12150,028.0,045.4,0.256,753.1,01.17,0.508
2016-02-17 02:11:00,1692E-3,5C000400,-0724,0837,12070,028.0,045.4,0.256,753.1,01.17,0.508
2016-02-17 02:12:00,1695E-3,5C000400,-0724,0836,11995,028.0,045.4,0.256,753.1,01.17,0.508
2016-02-17 02:13:00,1690E-3,5C000400,-0724,0837,12111,028.0,045.4,0.256,753.1,01.17,0.508
2016-02-17 02:14:00,1978E-3,5C000400,-0724,0835,12257,028.0,045.4,0.256,753.1,01.17,0.508
2016-02-17 02:15:00,1727E-3,5C000400,-0724,0836,12112,028.0,045.4,0.256,753.1,01.17,0.508
2016-02-17 02:16:00,1766E-3,5C000400,-0724,0836,12160,028.1,045.4,0.256,753.1,01.17,0.508
2016-02-17 02:17:00,1990E-3,5C000400,-0724,0837,12037,028.0,045.4,0.256,753.1,01.17,0.508
2016-02-17 02:18:00,1805E-3,5C000400,-0724,0836,12230,028.0,045.4,0.256,753.1,01.17,0.508
2016-02-17 02:19:00,1692E-3,5C000400,-0724,0836,12172,028.0,045.4,0.256,753.1,01.17,0.508
2016-02-17 02:20:00,1771E-3,5C000400,-0724,0837,12183,028.1,045.4,0.256,753.1,01.17,0.508
2016-02-17 02:21:00,1788E-3,5C000400,-0724,0836,12326,028.0,045.4,0.255,753.1,01.17,0.508
2016-02-17 02:22:00,1717E-3,5C000400,-0724,0837,12142,028.0,045.4,0.255,753.1,01.17,0.508
2016-02-17 02:23:00,1753E-3,5C000400,-0724,0837,12236,028.0,045.4,0.255,753.1,01.17,0.508
2016-02-17 02:24:00,1819E-3,5C000400,-0724,0836,12226,028.0,045.4,0.255,753.0,01.17,0.508
2016-02-17 02:25:00,1833E-3,5C000400,-0724,0836,12128,028.1,045.4,0.255,753.1,01.17,0.508
2016-02-17 02:26:00,1885E-3,5C000400,-0724,0836,12111,028.1,045.4,0.255,753.0,01.17,0.508
2016-02-17 02:27:00,1845E-3,5C000400,-0724,0837,12084,028.0,045.4,0.255,753.1,01.17,0.508
2016-02-17 02:28:00,1863E-3,5C000400,-0724,0837,12160,028.0,045.4,0.255,753.0,01.17,0.508
2016-02-17 02:29:00,1745E-3,5C000400,-0724,0836,12008,028.1,045.4,0.255,753.0,01.17,0.508
2016-02-17 02:30:00,1689E-3,5C000400,-0724,0836,12002,028.1,045.4,0.255,753.0,01.17,0.508
2016-02-17 02:31:00,1842E-3,5C000400,-0724,0836,12097,028.1,045.4,0.255,753.0,01.17,0.508
2016-02-17 02:32:00,1782E-3,5C000400,-0724,0836,12206,028.1,045.4,0.255,753.1,01.17,0.508
2016-02-17 02:33:00,1807E-3,5C000400,-0724,0836,12109,028.1,045.4,0.255,753.0,01.17,0.508
2016-02-17 02:34:00,1804E-3,5C000400,-0724,0836,12045,028.1,045.4,0.255,753.1,01.17,0.508
2016-02-17 02:35:00,1838E-3,5C000400,-0724,0836,12061,028.1,045.4,0.255,753.0,01.17,0.508
2016-02-17 02:36:00,1770E-3,5C000400,-0724,0836,12068,028.1,045.4,0.255,753.0,01.17,0.508
2016-02-17 02:37:00,1967E-3,5C000400,-0724,0836,12170,028.1,045.4,0.255,753.0,01.17,0.508
2016-02-17 02:38:00,1772E-3,5C000400,-0724,0836,12219,028.1,045.4,0.256,753.0,01.17,0.508
2016-02-17 02:39:00,1855E-3,5C000400,-0724,0836,12097,028.1,045.4,0.256,753.1,01.17,0.508
2016-02-17 02:40:00,1790E-3,5C000400,-0724,0835,12121,028.1,045.4,0.256,753.1,01.17,0.508
2016-02-17 02:41:00,1795E-3,5C000400,-0724,0837,12196,028.1,045.4,0.256,753.1,01.17,0.508
2016-02-17 02:42:00,1784E-3,5C000400,-0724,0837,12286,028.1,045.4,0.256,753.0,01.17,0.508
2016-02-17 02:43:00,1918E-3,5C000400,-0724,0836,12236,028.1,045.4,0.256,753.0,01.17,0.508
2016-02-17 02:44:00,1793E-3,5C000400,-0724,0836,12054,028.1,045.4,0.256,753.0,01.17,0.508
2016-02-17 02:45:00,1806E-3,5C000400,-0724,0837,12103,028.1,045.4,0.255,753.0,01.17,0.508
2016-02-17 02:46:00,1813E-3,5C000400,-0724,0837,12194,028.1,045.4,0.255,753.0,01.17,0.508
2016-02-17 02:47:00,1774E-3,5C000400,-0724,0836,12070,028.1,045.4,0.255,753.0,01.17,0.508
2016-02-17 02:48:00,1639E-3,5C000400,-0724,0837,12211,028.1,045.4,0.255,753.0,01.17,0.508
2016-02-17 02:49:00,1741E-3,5C000400,-0724,0836,12093,028.1,045.4,0.255,753.0,01.17,0.508
2016-02-17 02:50:00,1904E-3,5C000400,-0724,0836,12180,028.1,045.4,0.256,753.0,01.17,0.508
2016-02-17 02:51:00,1830E-3,5C000400,-0724,0836,12191,028.1,045.4,0.256,753.0,01.17,0.508
2016-02-17 02:52:00,1712E-3,5C000400,-0724,0837,12025,028.1,045.4,0.256,753.0,01.17,0.508
2016-02-17 02:53:00,1720E-3,5C000400,-0724,0836,12017,028.1,045.4,0.256,753.0,01.17,0.508
2016-02-17 02:54:00,1848E-3,5C000400,-0724,0836,12076,028.1,045.4,0.256,753.0,01.17,0.508
2016-02-17 02:55:00,1776E-3,5C000400,-0724,0836,12239,028.1,045.4,0.256,753.0,01.17,0.508
2016-02-17 02:56:00,1828E-3,5C000400,-0724,0836,12239,028.1,045.4,0.256,752.9,01.17,0.508
2016-02-17 02:57:00,1701E-3,5C000400,-0724,0837,12071,028.1,045.4,0.256,753.0,01.17,0.508
2016-02-17 02:58:00,1609E-3,5C000400,-0724,0836,12155,028.1,045.4,0.256,752.9,01.17,0.508
2016-02-17 02:59:00,1814E-3,5C000400,-0724,0836,12161,028.1,045.4,0.256,753.0,01.17,0.508
2016-02-17 03:00:00,1783E-3,5C000400,-0724,0837,12011,028.1,045.4,0.256,752.9,01.17,0.508
2016-02-17 03:01:00,1736E-3,5C000400,-0724,0836,12058,028.2,045.4,0.256,753.0,01.17,0.508
2016-02-17 03:02:00,1876E-3,5C000400,-0724,0837,12188,028.2,045.4,0.256,753.0,01.17,0.508
2016-02-17 03:03:00,1815E-3,5C000400,-0724,0836,12122,028.1,045.4,0.256,753.0,01.17,0.508
2016-02-17 03:04:00,1816E-3,5C000400,-0724,0836,12061,028.2,045.4,0.256,752.9,01.17,0.508
2016-02-17 03:05:00,1829E-3,5C000400,-0724,0837,12100,028.1,045.4,0.256,753.0,01.17,0.508
2016-02-17 03:06:00,1805E-3,5C000400,-0724,0836,12123,028.2,045.4,0.255,752.9,01.17,0.508
2016-02-17 03:07:00,1659E-3,5C000400,-0724,0836,12222,028.2,045.5,0.255,752.9,01.17,0.508
2016-02-17 03:08:00,1715E-3,5C000400,-0724,0837,12181,028.2,045.4,0.255,753.0,01.17,0.508
2016-02-17 03:09:00,1786E-3,5C000400,-0724,0837,12152,028.1,045.4,0.255,753.0,01.17,0.508
2016-02-17 03:10:00,1804E-3,5C000400,-0724,0837,12088,028.1,045.4,0.255,752.9,01.17,0.508
2016-02-17 03:11:00,1743E-3,5C000400,-0724,0837,12089,028.2,045.4,0.255,753.0,01.17,0.508
2016-02-17 03:12:00,1832E-3,5C000400,-0724,0837,12226,028.2,045.4,0.255,752.9,01.17,0.508
2016-02-17 03:13:00,1843E-3,5C000400,-0724,0836,12119,028.2,045.4,0.255,752.9,01.17,0.508
2016-02-17 03:14:00,1647E-3,5C000400,-0724,0836,12158,028.2,045.4,0.255,752.9,01.17,0.508
2016-02-17 03:15:00,1921E-3,5C000400,-0724,0837,12020,028.2,045.4,0.255,752.9,01.17,0.508
2016-02-17 03:16:00,1794E-3,5C000400,-0724,0837,12141,028.2,045.4,0.255,752.9,01.17,0.508
2016-02-17 03:17:00,1873E-3,5C000400,-0724,0837,12156,028.2,045.4,0.255,752.9,01.17,0.508
2016-02-17 03:18:00,1763E-3,5C000400,-0724,0837,12039,028.2,045.4,0.255,752.9,01.17,0.508
2016-02-17 03:19:00,1824E-3,5C000400,-0724,0837,12069,028.2,045.4,0.255,752.9,01.17,0.508
2016-02-17 03:20:00,1875E-3,5C000400,-0724,0836,12137,028.2,045.4,0.255,752.9,01.17,0.508
2016-02-17 03:21:00,1919E-3,5C000400,-0724,0836,12081,028.2,045.4,0.255,752.9,01.17,0.508
2016-02-17 03:22:00,1901E-3,5C000400,-0724,0836,12112,028.2,045.4,0.255,752.9,01.17,0.508
2016-02-17 03:23:00,1686E-3,5C000400,-0724,0836,12039,028.2,045.4,0.255,752.9,01.17,0.508
2016-02-17 03:24:00,1845E-3,5C000400,-0724,0836,12142,028.2,045.4,0.255,752.9,01.17,0.508
2016-02-17 03:25:00,1878E-3,5C000400,-0724,0837,12126,028.2,045.4,0.255,752.9,01.17,0.508
2016-02-17 03:26:00,1820E-3,5C000400,-0724,0836,12177,028.2,045.4,0.255,752.9,01.17,0.508
2016-02-17 03:27:00,1917E-3,5C000400,-0724,0837,12120,028.2,045.4,0.255,752.9,01.17,0.508
2016-02-17 03:28:00,1840E-3,5C000400,-0724,0837,12153,028.2,045.4,0.255,752.9,01.17,0.508
2016-02-17 03:29:00,1746E-3,5C000400,-0724,0836,11855,028.2,045.4,0.255,752.9,01.17,0.508
2016-02-17 03:30:00,1758E-3,5C000400,-0724,0836,12143,028.2,045.4,0.255,752.9,01.17,0.508
2016-02-17 03:31:00,1806E-3,5C000400,-0724,0836,12091,028.2,045.4,0.255,752.9,01.17,0.508
2016-02-17 03:32:00,1769E-3,5C000400,-0724,0836,12216,028.2,045.4,0.255,752.9,01.17,0.508
2016-02-17 03:33:00,1731E-3,5C000400,-0724,0837,12100,028.2,045.4,0.255,752.9,01.17,0.508
2016-02-17 03:34:00,1900E-3,5C000400,-0724,0837,12174,028.2,045.4,0.255,752.8,01.17,0.508
2016-02-17 03:35:00,1930E-3,5C000400,-0724,0836,12057,028.2,045.4,0.255,752.9,01.17,0.508
2016-02-17 03:36:00,1911E-3,5C000400,-0724,0837,12070,028.3,045.4,0.255,752.9,01.17,0.508
2016-02-17 03:37:00,1842E-3,5C000400,-0724,0836,12017,028.2,045.4,0.255,752.9,01.17,0.508
2016-02-17 03:38:00,1809E-3,5C000400,-0724,0836,12044,028.2,045.4,0.255,752.8,01.17,0.508
2016-02-17 03:39:00,1817E-3,5C000400,-0724,0837,12020,028.3,045.4,0.255,752.9,01.17,0.508
2016-02-17 03:40:00,1846E-3,5C000400,-0724,0836,12116,028.2,045.5,0.255,752.9,01.17,0.508
2016-02-17 03:41:00,1788E-3,5C000400,-0724,0836,12166,028.3,045.5,0.255,752.9,01.17,0.508
2016-02-17 03:42:00,1902E-3,5C000400,-0724,0837,12131,028.3,045.4,0.255,752.8,01.17,0.508
2016-02-17 03:43:00,1776E-3,5C000400,-0724,0836,12113,028.2,045.4,0.255,752.8,01.17,0.508
2016-02-17 03:44:00,1781E-3,5C000400,-0724,0837,12277,028.2,045.4,0.255,752.8,01.17,0.508
2016-02-17 03:45:00,1820E-3,5C000400,-0724,0836,12247,028.2,045.4,0.255,752.8,01.17,0.508
2016-02-17 03:46:00,1700E-3,5C000400,-0724,0836,12262,028.3,045.4,0.255,752.8,01.17,0.508
2016-02-17 03:47:00,1860E-3,5C000400,-0724,0836,12120,028.3,045.4,0.255,752.8,01.17,0.508
2016-02-17 03:48:00,1929E-3,5C000400,-0724,0837,12115,028.2,045.4,0.255,752.8,01.17,0.508
2016-02-17 03:49:00,1830E-3,5C000400,-0724,0836,12125,028.3,045.4,0.255,752.8,01.17,0.508
2016-02-17 03:50:00,1965E-3,5C000400,-0724,0837,12093,028.3,045.4,0.255,752.8,01.17,0.508
2016-02-17 03:51:00,1721E-3,5C000400,-0724,0836,12258,028.3,045.4,0.255,752.8,01.17,0.508
2016-02-17 03:52:00,1840E-3,5C000400,-0724,0837,12216,028.3,045.4,0.255,752.8,01.17,0.508
2016-02-17 03:53:00,1799E-3,5C000400,-0724,0836,12139,028.3,045.4,0.255,752.8,01.17,0.508
2016-02-17 03:54:00,1833E-3,5C000400,-0724,0837,12101,028.3,045.4,0.255,752.7,01.17,0.508
2016-02-17 03:55:00,1754E-3,5C000400,-0724,0837,12123,028.3,045.4,0.255,752.7,01.17,0.508
2016-02-17 03:56:00,1759E-3,5C000400,-0724,0837,12207,028.3,045.4,0.255,752.7,01.17,0.508
2016-02-17 03:57:00,1785E-3,5C000400,-0724,0837,12005,028.3,045.4,0.255,752.7,01.17,0.508
2016-02-17 03:58:00,1925E-3,5C000400,-0724,0837,12248,028.3,045.4,0.255,752.7,01.17,0.508
2016-02-17 03:59:00,1872E-3,5C000400,-0724,0837,12133,028.3,045.4,0.255,752.7,01.17,0.508
2016-02-17 04:00:00,1813E-3,5C000400,-0724,0837,12240,028.3,045.5,0.255,752.7,01.17,0.508
2016-02-17 04:01:00,1702E-3,5C000400,-0724,0837,12095,028.3,045.4,0.255,752.7,01.17,0.508
2016-02-17 04:02:00,1797E-3,5C000400,-0724,0836,12039,028.3,045.4,0.255,752.7,01.17,0.508
2016-02-17 04:03:00,1825E-3,5C000400,-0724,0836,12163,028.3,045.4,0.255,752.7,01.17,0.508
2016-02-17 04:04:00,1879E-3,5C000400,-0724,0836,12137,028.3,045.4,0.255,752.7,01.17,0.508
2016-02-17 04:05:00,1782E-3,5C000400,-0724,0837,12223,028.3,045.4,0.255,752.7,01.17,0.508
2016-02-17 04:06:00,1636E-3,5C000400,-0724,0836,12057,028.3,045.4,0.255,752.7,01.17,0.508
2016-02-17 04:07:00,1682E-3,5C000400,-0724,0837,12080,028.3,045.4,0.255,752.7,01.17,0.508
2016-02-17 04:08:00,1792E-3,5C000400,-0724,0836,12131,028.3,045.4,0.255,752.7,01.17,0.508
2016-02-17 04:09:00,1806E-3,5C000400,-0724,0837,12216,028.3,045.4,0.255,752.7,01.17,0.508
2016-02-17 04:10:00,1766E-3,5C000400,-0724,0836,12189,028.3,045.4,0.255,752.7,01.17,0.508
2016-02-17 04:11:00,1848E-3,5C000400,-0724,0835,12066,028.3,045.4,0.255,752.8,01.17,0.508
2016-02-17 04:12:00,1850E-3,5C000400,-0724,0837,12126,028.3,045.4,0.255,752.8,01.17,0.508
2016-02-17 04:13:00,1736E-3,5C000400,-0724,0836,12106,028.3,045.4,0.255,752.8,01.17,0.508
2016-02-17 04:14:00,2000E-3,5C000400,-0724,0836,12122,028.3,045.4,0.255,752.8,01.17,0.508
2016-02-17 04:15:00,1780E-3,5C000400,-0724,0836,12128,028.4,045.4,0.255,752.7,01.17,0.508
2016-02-17 04:16:00,1774E-3,5C000400,-0724,0837,12133,028.4,045.4,0.255,752.8,01.17,0.508
2016-02-17 04:17:00,1953E-3,5C000400,-0724,0837,12146,028.4,045.4,0.255,752.8,01.17,0.508
2016-02-17 04:18:00,1880E-3,5C000400,-0724,0836,12173,028.4,045.4,0.255,752.8,01.17,0.508
2016-02-17 04:19:00,1870E-3,5C000400,-0724,0837,12208,028.4,045.4,0.255,752.8,01.17,0.508
2016-02-17 04:20:00,1879E-3,5C000400,-0724,0836,12131,028.4,045.4,0.255,752.8,01.17,0.508